Вернуться в каталог

STARLINK-32241

АктивенСвязьVLEO
NORAD 60437·PAYLOAD·🇺🇸 United States

Запущен Aug 12, 2024 с Cape Canaveral Space Force Station

Loading…

Ближайшие Пролёты (ближайшие 24 часа)

TLE

СвежийSource: CelesTrak SupGP

Эпоха: Sep 14, 2026, 22:26 UTC

1 60437C 24144N   26257.93520833  .00039219  00000+0  11590-2 0  2578
2 60437  53.1592  54.0465 0001217  82.5168 173.3257 15.34364588    18

Отслеживайте STARLINK-32241 в реальном времени с AllMySat

Download on the App Store